GW7162 Weather Reports


Display with metric or nautical units.
time (UTC)temp
F
wind
direction
speed
MPH
gust
MPH
rain 1hr
in
rain 24hr
in
rain mn
in
humidity
%
barometer
mb
20260505124509 58 135 0.0 0.0 0.00 0.12 0.12 85 1007.4
20260505124006 58 184 0.0 0.0 0.00 0.12 0.12 87 1007.3
20260505123502 58 162 0.0 0.0 0.00 0.12 0.12 88 1007.3
20260505122958 58 143 0.0 0.0 0.00 0.12 0.12 88 1007.0
20260505122455 58 174 0.0 0.0 0.00 0.12 0.12 87 1007.0
20260505121952 58 96 1.0 1.0 0.00 0.12 0.12 87 1006.9
20260505121449 58 162 0.0 1.0 0.00 0.12 0.12 89 1006.7
20260505120945 59 88 2.0 3.0 0.00 0.12 0.12 88 1006.7
20260505120442 59 102 0.0 1.0 0.00 0.12 0.12 88 1006.9
20260505115941 59 156 0.0 0.0 0.00 0.12 0.12 88 1007.2
20260505115437 59 147 0.0 0.0 0.00 0.12 0.12 89 1006.9
20260505114936 59 106 1.0 2.0 0.00 0.12 0.12 90 1006.9
20260505114431 59 157 0.0 0.0 0.00 0.12 0.12 90 1006.6
20260505113928 59 166 0.0 0.0 0.00 0.12 0.12 93 1006.9
20260505113425 59 174 0.0 0.0 0.00 0.12 0.12 93 1006.9
20260505112920 59 177 0.0 0.0 0.00 0.12 0.12 93 1006.6
20260505112418 59 177 0.0 0.0 0.00 0.12 0.12 93 1006.4
20260505111914 60 129 1.0 1.0 0.07 0.12 0.12 93 1006.6
20260505111409 60 205 2.0 2.0 0.07 0.12 0.12 92 1005.9
20260505110905 60 108 0.0 0.0 0.00 0.11 0.11 93 1005.6
20260505110402 60 175 0.0 0.0 0.00 0.11 0.11 95 1006.7
20260505101833 60 179 0.0 0.0 0.07 0.11 0.11 93 1006.5
20260505101328 60 173 0.0 1.0 0.07 0.11 0.11 93 1006.4
20260505100824 59 181 0.0 1.0 0.00 0.10 0.10 94 1006.1
20260505100321 59 41 3.0 3.0 0.00 0.10 0.10 94 1006.3
20260505095816 59 177 0.0 0.0 0.00 0.10 0.10 93 1006.0
20260505095314 60 180 0.0 0.0 0.00 0.10 0.10 93 1005.6
20260505094810 60 177 0.0 0.0 0.05 0.10 0.10 92 1005.2
20260505094307 60 186 0.0 0.0 0.05 0.10 0.10 91 1005.4
20260505093802 60 202 1.0 2.0 0.00 0.09 0.09 90 1005.7
20260505093301 60 183 0.0 0.0 0.00 0.09 0.09 92 1005.3
20260505092757 60 175 0.0 0.0 0.00 0.09 0.09 91 1004.9
20260505092256 60 182 0.0 0.0 0.00 0.09 0.09 90 1005.1
20260505091752 60 188 0.0 0.0 0.00 0.09 0.09 89 1005.1
20260505091250 60 195 0.0 0.0 0.00 0.09 0.09 86 1004.7
20260505090748 61 181 0.0 1.0 0.00 0.09 0.09 87 1004.2
20260505090246 60 189 2.0 2.0 0.00 0.09 0.09 89 1003.7
20260505085743 60 205 2.0 3.0 0.00 0.09 0.09 91 1003.8
20260505085241 60 150 1.0 2.0 0.07 0.09 0.09 91 1003.8
20260505084738 61 239 5.0 13.0 0.12 0.09 0.09 92 1004.6
20260505084238 61 173 1.0 2.0 0.05 0.08 0.08 91 1005.1
20260505083734 61 207 1.0 3.0 0.07 0.07 0.07 93 1005.9
20260505083230 61 187 1.0 2.0 0.12 0.07 0.07 93 1006.4
20260505082726 61 182 0.0 0.0 0.12 0.06 0.06 93 1006.4
20260505082224 61 186 1.0 2.0 0.07 0.05 0.05 93 1006.5
20260505081719 61 196 3.0 7.0 0.05 0.04 0.04 92 1006.3
20260505081217 61 166 0.0 0.0 0.05 0.04 0.04 92 1006.2
20260505080714 62 203 0.0 0.0 0.07 0.03 0.03 91 1006.2
20260505080210 62 222 1.0 1.0 0.12 0.03 0.03 90 1006.2
20260505075706 62 185 2.0 2.0 0.12 0.02 0.02 88 1006.2
20260505075203 63 179 1.0 1.0 0.07 0.01 0.01 86 1006.1
20260505074700 63 203 1.0 1.0 0.00 0.00 0.00 83 1006.0
20260505074156 63 291 2.0 3.0 0.00 0.00 0.00 81 1006.3
20260505073655 64 166 0.0 0.0 0.00 0.00 0.00 79 1006.1
20260505073153 64 171 2.0 2.0 0.00 0.00 0.00 76 1006.3
20260505072648 64 100 0.0 1.0 0.00 0.00 0.00 77 1006.1
20260505072145 64 214 2.0 2.0 0.00 0.00 0.00 76 1006.0
20260505071640 65 182 0.0 0.0 0.00 0.00 0.00 75 1006.0
20260505071138 65 184 3.0 3.0 0.00 0.00 0.00 73 1006.2
20260505070635 65 198 2.0 2.0 0.00 0.00 0.00 72 1006.0
20260505070131 65 176 2.0 3.0 0.00 0.00 0.00 72 1005.9
20260505065627 65 195 0.0 0.0 0.00 0.00 0.00 72 1005.9
20260505065124 65 182 1.0 1.0 0.00 0.00 0.00 73 1005.6
20260505064621 65 188 1.0 2.0 0.00 0.00 0.00 72 1005.8
20260505064120 65 215 0.0 0.0 0.00 0.00 0.00 72 1006.1
20260505063617 65 172 0.0 0.0 0.00 0.00 0.00 72 1006.3
20260505063112 65 185 0.0 0.0 0.00 0.00 0.00 72 1006.4
20260505062609 65 168 0.0 0.0 0.00 0.00 0.00 72 1006.4
20260505062106 65 169 1.0 2.0 0.00 0.00 0.00 71 1006.2
20260505061603 65 188 1.0 1.0 0.00 0.00 0.00 72 1006.3
20260505061101 65 176 0.0 0.0 0.00 0.00 0.00 72 1006.4
20260505060559 65 200 1.0 1.0 0.00 0.00 0.00 71 1006.5
20260505060055 65 177 0.0 0.0 0.00 0.00 0.00 71 1006.3
20260505055550 65 194 0.0 0.0 0.00 0.00 0.00 71 1006.3
20260505055047 66 180 0.0 0.0 0.00 0.00 0.00 71 1006.4
20260505054545 66 182 0.0 1.0 0.00 0.00 0.00 70 1006.5
20260505054043 66 192 1.0 1.0 0.00 0.00 0.00 70 1006.4
20260505053539 66 124 0.0 1.0 0.00 0.00 0.00 70 1006.2
20260505053036 66 168 1.0 2.0 0.00 0.00 0.00 70 1006.4
20260505052533 66 175 0.0 0.0 0.00 0.00 0.00 70 1006.3
20260505052031 66 193 0.0 0.0 0.00 0.00 0.00 70 1006.4
20260505051527 66 179 1.0 1.0 0.00 0.00 0.00 70 1006.3
20260505051026 66 185 1.0 1.0 0.00 0.00 0.00 69 1006.3
20260505050524 66 161 0.0 1.0 0.00 0.00 0.00 70 1006.5
20260505041451 65 178 0.0 0.0 0.00 0.00 0.00 71 1007.0
20260505040948 65 184 0.0 0.0 0.00 0.00 0.00 72 1007.0
20260505040446 64 174 0.0 0.0 0.00 0.00 0.00 73 1007.2
20260505035943 64 185 0.0 0.0 0.00 0.00 0.00 73 1007.3
20260505035438 65 177 0.0 0.0 0.00 0.00 0.00 73 1007.2
20260505034936 65 176 0.0 0.0 0.00 0.00 0.00 72 1007.4
20260505034432 65 175 0.0 0.0 0.00 0.00 0.00 72 1007.4
20260505033929 66 175 0.0 0.0 0.00 0.00 0.00 71 1007.5
20260505033426 66 175 0.0 0.0 0.00 0.00 0.00 70 1007.5
20260505032924 66 175 0.0 0.0 0.00 0.00 0.00 70 1007.6
20260505032421 67 175 0.0 0.0 0.00 0.00 0.00 69 1007.4
20260505031918 67 174 0.0 0.0 0.00 0.00 0.00 68 1007.5
20260505031414 67 173 0.0 0.0 0.00 0.00 0.00 67 1007.7
20260505030912 68 198 0.0 0.0 0.00 0.00 0.00 67 1007.4
20260505030407 68 187 0.0 0.0 0.00 0.00 0.00 66 1007.4
20260505025903 68 176 0.0 0.0 0.00 0.00 0.00 66 1007.3
20260505025401 69 196 0.0 1.0 0.00 0.00 0.00 65 1007.4
20260505024859 69 175 0.0 0.0 0.00 0.00 0.00 65 1007.4
20260505024356 69 184 0.0 0.0 0.00 0.00 0.00 65 1007.4
20260505023853 69 190 1.0 1.0 0.00 0.00 0.00 65 1007.2
20260505023350 69 191 0.0 0.0 0.00 0.00 0.00 64 1007.4
20260505022847 69 198 1.0 2.0 0.00 0.00 0.00 63 1007.1
20260505022344 69 187 1.0 2.0 0.00 0.00 0.00 63 1007.0
20260505021842 70 197 1.0 1.0 0.00 0.00 0.00 63 1007.0
20260505021338 69 193 0.0 0.0 0.00 0.00 0.00 63 1006.9
20260505020834 69 193 0.0 0.0 0.00 0.00 0.00 64 1006.7
20260505020330 69 183 0.0 0.0 0.00 0.00 0.00 65 1006.7
20260505015827 69 188 0.0 1.0 0.00 0.00 0.00 64 1006.6
20260505015324 69 189 0.0 0.0 0.00 0.00 0.00 65 1006.6
20260505014821 69 183 0.0 0.0 0.00 0.00 0.00 63 1006.6
20260505014318 70 188 0.0 0.0 0.00 0.00 0.00 62 1006.5
20260505013814 70 188 0.0 0.0 0.00 0.00 0.00 62 1006.4
20260505013312 70 183 0.0 0.0 0.00 0.00 0.00 62 1006.2
20260505012810 70 176 0.0 0.0 0.00 0.00 0.00 62 1006.3
20260505012308 71 178 0.0 0.0 0.00 0.00 0.00 60 1006.3
20260505011803 71 173 0.0 0.0 0.00 0.00 0.00 59 1006.2
20260505011301 71 180 0.0 0.0 0.00 0.00 0.00 59 1006.2
20260505010756 72 184 0.0 0.0 0.00 0.00 0.00 59 1005.9
20260505010252 72 196 2.0 2.0 0.00 0.00 0.00 56 1006.1
20260505005749 72 177 0.0 1.0 0.00 0.00 0.00 57 1005.8
20260505005246 73 182 0.0 0.0 0.00 0.00 0.00 57 1006.0
20260505004743 73 211 1.0 1.0 0.00 0.00 0.00 55 1006.0
20260505004239 73 175 1.0 2.0 0.00 0.00 0.00 55 1005.7
20260505003736 73 190 1.0 1.0 0.00 0.00 0.00 55 1005.9
20260505003234 73 201 1.0 2.0 0.00 0.00 0.00 54 1005.8
20260505002730 73 194 0.0 0.0 0.00 0.00 0.00 53 1005.8
20260505002228 74 188 0.0 0.0 0.00 0.00 0.00 53 1005.9
20260505001725 74 189 0.0 0.0 0.00 0.00 0.00 52 1005.4
20260505001223 74 185 0.0 0.0 0.00 0.00 0.00 52 1005.7
20260505000720 75 192 2.0 2.0 0.00 0.00 0.00 52 1005.7
20260505000218 75 179 0.0 0.0 0.00 0.00 0.00 50 1006.0
20260504235714 75 191 1.0 2.0 0.00 0.00 0.00 50 1005.7
20260504235210 76 192 0.0 0.0 0.00 0.00 0.00 50 1005.6
20260504234707 76 189 0.0 0.0 0.00 0.00 0.00 50 1005.6
20260504234204 76 200 2.0 3.0 0.00 0.00 0.00 48 1005.4
20260504233700 77 193 1.0 2.0 0.00 0.00 0.00 48 1005.6
20260504233156 77 202 1.0 2.0 0.00 0.00 0.00 49 1005.7
20260504232654 77 169 0.0 0.0 0.00 0.00 0.00 49 1005.6
20260504232151 78 183 1.0 2.0 0.00 0.00 0.00 48 1005.6
20260504231648 78 187 2.0 3.0 0.00 0.00 0.00 47 1005.4
20260504231144 78 164 2.0 3.0 0.00 0.00 0.00 47 1005.6
20260504230640 78 222 4.0 6.0 0.00 0.00 0.00 46 1005.8
20260504230139 78 200 0.0 1.0 0.00 0.00 0.00 46 1005.6
20260504225637 78 170 3.0 6.0 0.00 0.00 0.00 45 1005.6
20260504225132 78 213 2.0 3.0 0.00 0.00 0.00 45 1005.6
20260504224630 78 154 1.0 1.0 0.00 0.00 0.00 47 1005.8
20260504224126 79 187 1.0 2.0 0.00 0.00 0.00 46 1005.6
20260504223624 79 196 2.0 3.0 0.00 0.00 0.00 47 1005.8
20260504223119 79 189 2.0 2.0 0.00 0.00 0.00 46 1005.7
20260504222616 79 236 5.0 8.0 0.00 0.00 0.00 46 1005.6
20260504222114 79 201 1.0 2.0 0.00 0.00 0.00 47 1005.6
20260504221611 79 166 2.0 3.0 0.00 0.00 0.00 47 1005.4
20260504221108 80 159 3.0 4.0 0.00 0.00 0.00 48 1005.7
20260504220604 79 208 2.0 2.0 0.00 0.00 0.00 45 1005.8
20260504215557 79 230 2.0 2.0 0.00 0.00 0.00 47 1005.8
20260504215055 79 339 2.0 2.0 0.00 0.00 0.00 49 1005.8
20260504214551 79 158 2.0 2.0 0.00 0.00 0.00 47 1005.9
20260504214047 79 214 2.0 3.0 0.00 0.00 0.00 46 1005.8
20260504213544 79 181 2.0 3.0 0.00 0.00 0.00 48 1005.7
20260504213041 79 214 4.0 6.0 0.00 0.00 0.00 45 1005.9
20260504212537 79 196 2.0 3.0 0.00 0.00 0.00 46 1006.0
20260504212034 80 173 0.0 0.0 0.00 0.00 0.00 46 1006.0
20260504211531 80 291 4.0 6.0 0.00 0.00 0.00 46 1006.2
20260504211028 79 241 4.0 6.0 0.00 0.00 0.00 45 1006.1
20260504210525 79 206 2.0 3.0 0.00 0.00 0.00 46 1006.3
20260504210022 80 193 3.0 4.0 0.00 0.00 0.00 45 1006.3
20260504205520 81 210 3.0 4.0 0.00 0.00 0.00 44 1006.4
20260504205018 80 229 1.0 1.0 0.00 0.00 0.00 47 1006.4
20260504204515 81 320 2.0 2.0 0.00 0.00 0.00 46 1006.4
20260504204014 81 199 1.0 2.0 0.00 0.00 0.00 45 1006.4
20260504203512 81 224 0.0 1.0 0.00 0.00 0.00 46 1006.6
20260504203009 81 202 0.0 1.0 0.00 0.00 0.00 45 1006.6
20260504202504 81 256 5.0 8.0 0.00 0.00 0.00 44 1006.6
20260504202001 80 254 1.0 2.0 0.00 0.00 0.00 45 1006.6
20260504201458 81 268 2.0 3.0 0.00 0.00 0.00 44 1007.0
20260504200956 80 190 1.0 2.0 0.00 0.00 0.00 46 1006.8
20260504200452 80 181 3.0 6.0 0.00 0.00 0.00 45 1007.1
20260504195949 80 260 2.0 4.0 0.00 0.00 0.00 43 1007.0
20260504195445 81 192 6.0 8.0 0.00 0.00 0.00 46 1006.9
20260504194942 80 167 4.0 4.0 0.00 0.00 0.00 47 1007.1
20260504194438 82 217 1.0 1.0 0.00 0.00 0.00 47 1007.3
20260504193934 81 200 1.0 2.0 0.00 0.00 0.00 49 1007.2
20260504193431 80 228 2.0 2.0 0.00 0.00 0.00 46 1007.2
20260504192930 80 272 1.0 2.0 0.00 0.00 0.00 45 1007.2
20260504192427 80 186 0.0 0.0 0.00 0.00 0.00 48 1007.0
20260504191926 81 186 7.0 11.0 0.00 0.00 0.00 45 1007.3
20260504191424 80 279 4.0 7.0 0.00 0.00 0.00 47 1007.2
20260504190918 80 194 1.0 3.0 0.00 0.00 0.00 47 1007.3
20260504190414 80 149 3.0 3.0 0.00 0.00 0.00 45 1007.2
20260504185911 80 244 3.0 3.0 0.00 0.00 0.00 48 1007.2
20260504185409 80 8 3.0 7.0 0.00 0.00 0.00 45 1007.2
20260504184904 80 256 2.0 2.0 0.00 0.00 0.00 46 1007.4
20260504184400 79 221 4.0 7.0 0.00 0.00 0.00 46 1007.3
20260504183856 79 201 4.0 8.0 0.00 0.00 0.00 47 1007.2
20260504183354 79 266 2.0 3.0 0.00 0.00 0.00 45 1007.3
20260504182851 79 173 3.0 4.0 0.00 0.00 0.00 47 1007.4
20260504182348 80 160 2.0 2.0 0.00 0.00 0.00 47 1007.3
20260504181845 79 214 2.0 3.0 0.00 0.00 0.00 49 1007.3
20260504181343 78 219 3.0 6.0 0.00 0.00 0.00 47 1007.4
20260504180841 79 242 4.0 7.0 0.00 0.00 0.00 47 1007.2
20260504180339 79 208 5.0 6.0 0.00 0.00 0.00 45 1007.3
20260504175837 79 86 2.0 3.0 0.00 0.00 0.00 47 1007.5
20260504175333 78 221 1.0 1.0 0.00 0.00 0.00 46 1007.5
20260504174832 78 284 2.0 3.0 0.00 0.00 0.00 49 1007.7
20260504174329 78 257 2.0 2.0 0.00 0.00 0.00 48 1007.5
20260504173826 78 190 2.0 4.0 0.00 0.00 0.00 47 1007.6
20260504173323 78 248 2.0 3.0 0.00 0.00 0.00 48 1007.8
20260504172820 77 108 2.0 3.0 0.00 0.00 0.00 47 1007.9
20260504172316 77 326 2.0 4.0 0.00 0.00 0.00 46 1007.8
20260504171812 77 171 2.0 3.0 0.00 0.00 0.00 49 1007.8
20260504171310 77 229 2.0 3.0 0.00 0.00 0.00 48 1008.0
20260504170807 77 203 6.0 8.0 0.00 0.00 0.00 48 1008.1
20260504170303 76 174 2.0 3.0 0.00 0.00 0.00 51 1008.0
20260504160222 75 245 3.0 4.0 0.00 0.00 0.00 50 1008.4
20260504150653 71 162 0.0 1.0 0.00 0.00 0.00 52 1009.0
20260504150149 71 310 3.0 8.0 0.00 0.00 0.00 51 1009.2
20260504141118 68 259 3.0 4.0 0.00 0.00 0.00 54 1009.7
20260504140615 68 182 3.0 6.0 0.00 0.00 0.00 57 1009.7
20260504140111 68 133 0.0 0.0 0.00 0.00 0.00 55 1009.9
20260504130539 65 206 1.0 2.0 0.00 0.00 0.00 58 1010.0